Tracking 25709 objects as of 24-May-2022
HD Live streaming from Space Station
objects crossing your sky now

ONEWEB-0303

Track ONEWEB-0303 now!
10-day predictions
ONEWEB-0303 is classified as:


NORAD ID: 49187
Int'l Code: 2021-083B
Perigee: 1,195.3 km
Apogee: 1,198.6 km
Inclination: 87.9 °
Period: 109.2 minutes
Semi major axis: 7567 km
RCS: Unknown
Launch date: September 14, 2021
Source: United Kingdom (UK)
Launch site: TYURATAM MISSILE AND SPACE COMPLEX (TTMTR)
aabbcc
Your satellite tracking list
Your tracking list is empty




NASA's NSSDC Master Catalog

Two Line Element Set (TLE):
1 49187U 21083B   22144.25002315  .00046272  00000-0  11678+0 0  9997
2 49187  87.9114 270.5190 0002190 107.8454 264.0893 13.18663758 35554
Source of the keplerian elements: AFSPC